| time (UTC) | temp C | wind direction | speed KPH | gust KPH | rain 1hr cm | rain 24hr cm | rain mn cm | humidity % | barometer mb |
| 20260504081349 | 10 | 74 | 1.6 | 12.9 | 0.00 | 0.00 | 0.00 | 71 | 1022.0 |
| 20260504044350 | -5 | 35 | 0.0 | 0.0 | 0.00 | 0.00 | 0.00 | 90 | 1022.4 |
| 20260504042839 | -5 | 35 | 0.0 | 0.0 | 0.00 | 0.00 | 0.00 | 90 | 1022.4 |
| 20260504035847 | -4 | 35 | 0.0 | 0.0 | 0.00 | 0.00 | 0.00 | 88 | 1022.4 |
| 20260504032851 | -3 | 35 | 0.0 | 0.0 | 0.00 | 0.00 | 0.00 | 87 | 1022.5 |
| 20260504031341 | -2 | 35 | 0.0 | 0.0 | 0.00 | 0.00 | 0.00 | 86 | 1022.7 |
| 20260504024344 | 0 | 35 | 0.0 | 0.0 | 0.00 | 0.00 | 0.00 | 85 | 1023.0 |
| 20260504021352 | 1 | 35 | 0.0 | 0.0 | 0.00 | 0.00 | 0.00 | 85 | 1023.1 |
| 20260504014352 | 3 | 35 | 0.0 | 0.0 | 0.00 | 0.00 | 0.00 | 82 | 1023.3 |
| 20260504011348 | 5 | 35 | 0.0 | 1.6 | 0.00 | 0.00 | 0.00 | 77 | 1023.5 |
| 20260504005841 | 6 | 35 | 0.0 | 3.2 | 0.00 | 0.00 | 0.00 | 73 | 1023.7 |
| 20260504002847 | 5 | 104 | 1.6 | 12.9 | 0.00 | 0.00 | 0.00 | 80 | 1024.0 |
| 20260504001343 | 6 | 26 | 0.0 | 3.2 | 0.00 | 0.00 | 0.00 | 75 | 1024.6 |
| 20260503234348 | 4 | 313 | 0.0 | 1.6 | 0.00 | 0.00 | 0.00 | 82 | 1024.9 |
| 20260503232837 | 1 | 38 | 0.0 | 3.2 | 0.00 | 0.00 | 0.00 | 91 | 1025.2 |
| 20260503225846 | 2 | 41 | 0.0 | 0.0 | 0.00 | 0.00 | 0.00 | 89 | 1025.4 |
| 20260503222848 | -2 | 40 | 0.0 | 0.0 | 0.00 | 0.00 | 0.00 | 93 | 1025.8 |
| 20260503215858 | -2 | 40 | 0.0 | 0.0 | 0.00 | 0.00 | 0.00 | 93 | 1025.7 |
| 20260503214345 | -2 | 40 | 0.0 | 0.0 | 0.00 | 0.00 | 0.00 | 93 | 1025.8 |
| 20260503211344 | -2 | 40 | 0.0 | 0.0 | 0.00 | 0.00 | 0.00 | 93 | 1025.5 |
| 20260503205845 | -2 | 40 | 0.0 | 0.0 | 0.00 | 0.00 | 0.00 | 92 | 1025.6 |
| 20260503204334 | -2 | 40 | 0.0 | 0.0 | 0.00 | 0.00 | 0.00 | 91 | 1025.7 |
| 20260503201340 | -1 | 40 | 0.0 | 0.0 | 0.00 | 0.00 | 0.00 | 88 | 1025.8 |
| 20260503195834 | -1 | 40 | 0.0 | 0.0 | 0.00 | 0.00 | 0.00 | 86 | 1025.6 |
| 20260503192842 | 1 | 40 | 0.0 | 0.0 | 0.00 | 0.00 | 0.00 | 84 | 1025.4 |
| 20260503185845 | 3 | 40 | 0.0 | 0.0 | 0.00 | 0.00 | 0.00 | 82 | 1025.3 |
| 20260503182849 | 5 | 40 | 0.0 | 0.0 | 0.00 | 0.00 | 0.00 | 79 | 1025.2 |
| 20260503181341 | 6 | 40 | 0.0 | 0.0 | 0.00 | 0.00 | 0.00 | 76 | 1025.0 |
| 20260503174352 | 8 | 52 | 0.0 | 1.6 | 0.00 | 0.00 | 0.00 | 74 | 1025.0 |
| 20260503171347 | 8 | 52 | 0.0 | 6.4 | 0.00 | 0.00 | 0.00 | 72 | 1025.2 |